Regional Weather Roundup
Issued by NWS

Home | Current Version | Previous Version | Text Only | Print | Product List | Glossary On
Versions: 1 2 3 4 5 6 7 8 9 10 11 12 13 14 15 16 17 18 19 20 21 22 23 24 25 26 27 28 29 30 31 32 33 34 35 36 37 38 39 40 41 42 43 44 45 46 47 48 49 50
000
ASUS44 KFWD 231010
RWRTX
NORTH TEXAS HOURLY WEATHER ROUNDUP
NATIONAL WEATHER SERVICE FORT WORTH TX
500 AM CDT WED AUG 23 2017

NOTE: "FAIR" INDICATES FEW OR NO CLOUDS BELOW 12,000 FEET WITH NO
SIGNIFICANT WEATHER AND/OR OBSTRUCTIONS TO VISIBILITY.

TXZ118-119-231100-
DALLAS/FORT WORTH METROPLEX

CITY           SKY/WX    TMP DP  RH WIND       PRES   REMARKS
DFW AIRPORT    MOCLDY    78  71  79 N12       30.02R
DALLAS LOVE    CLOUDY    79  70  74 NE13      30.02R
FTW MEACHAM    LGT RAIN  76  73  91 N9        30.04R
DAL-EXECUTIVE  CLOUDY    79  71  76 N12G21    30.01S
FTW-ALLIANCE   LGT RAIN  74  72  93 N7        30.05R
FTW-NAS-JRB    CLOUDY    77  71  82 N13       30.04F
FTW-SPINKS     CLOUDY    77  70  79 N8        30.05R
ARLINGTON      CLOUDY    78  72  81 N14       30.04R
GRAND PRAIRIE  CLOUDY    77  69  75 N13G18    30.05R
ADDISON        CLOUDY    76  70  82 N8        30.05R
MESQUITE         N/A     77  72  83 SW10      30.01S
LANCASTER      MOCLDY    78  71  76 N15G22    30.02R
$$

TXZ091>094-102>105-117-120-121-131>134-231100-
NORTH CENTRAL TEXAS

CITY           SKY/WX    TMP DP  RH WIND       PRES   REMARKS
SHRMAN/DENISON TSTM      72  71  97 SE6       30.06S
GAINESVILLE    DRIZZLE   71  70  96 E3        30.06F
BOWIE          LGT RAIN  71  71  99 CALM      30.04F
BRIDGEPORT       N/A     72  72 100 CALM      30.07S
DECATUR        RAIN      72  71  96 SW3         N/A
DENTON         LGT RAIN  73  73 100 N8        30.04R
MCKINNEY       CLOUDY    74  71  91 N13       30.03S
BONHAM         TSTM      70  68  94 N8        30.06R FOG
GREENVILLE     CLOUDY    77  73  88 N9        30.03F
ROCKWALL       CLOUDY    76  71  84 NE8G17    30.03S
TERRELL        CLOUDY    80  72  76 N15G21    30.02R
WAXAHACHIE     MOCLDY    77  72  84 N8        30.03R
CLEBURNE       CLOUDY    77  73  88 NE15      30.04S
GRANBURY       MOCLDY    78  69  75 NE8       30.04F
$$

TXZ083>090-098>101-113>116-127>130-139>142-154-155-231100-
WESTERN NORTH TEXAS

CITY           SKY/WX    TMP DP  RH WIND       PRES   REMARKS
WICHITA FALLS  CLOUDY    71  69  93 NE6       30.04S
WF-KICKAPOO    CLOUDY    72  71  96 NE6       30.06S
VERNON         PTCLDY    71  67  87 NE5       30.08S
ABILENE        CLOUDY    72  70  93 N9        30.08S
ABILENE-DYESS  CLOUDY    72  71  96 N8        30.07R
GRAHAM         LGT RAIN  72  32  23 NE6       30.00F
BRECKENRIDGE   CLOUDY    74  72  91 NE3       30.04R
CISCO          CLOUDY    73  70  88 NE9       30.06S
EASTLAND       PTCLDY    73  70  92 E8        30.05R
RANGER         DRIZZLE   72  71  98 E8        30.05S
MINERAL WELLS  LGT RAIN  72  70  93 NE9       30.01F
STEPHENVILLE   CLOUDY    75  70  84 NE9       30.07R
COMANCHE       PTCLDY    73  69  86 N3        30.04S
BROWNWOOD      MOCLDY    75  68  78 CALM      30.03S
COLEMAN        PTCLDY    75  64  68 N7        30.06S
$$

TXZ143>147-156>162-174-175-231100-
CENTRAL TEXAS

CITY           SKY/WX    TMP DP  RH WIND       PRES   REMARKS
WACO           MOCLDY    79  70  74 S9        29.99R
WACO-MCGREGOR  CLOUDY    78  69  73 S3        29.99R
HILLSBORO      CLOUDY    79  69  71 N3        30.01R
CORSICANA      CLOUDY    79  70  74 SW5       30.00R
MEXIA          PTCLDY    75  69  82 S5        29.99S
HEARNE         PTCLDY    74  71  89 CALM      30.00S
CAMERON        PTCLDY    77  72  82 SW5       29.99S
TEMPLE         CLOUDY    76  70  82 S7        30.00S
KILLEEN        CLOUDY    78  68  72 SW8       30.01R
KILLEEN-SKYLRK CLOUDY    78  70  76 SW3       30.01R
FORT HOOD      CLOUDY    78  69  73 SW5       29.97S
HAMILTON       PTCLDY    77  65  67 CALM      30.04R
LAMPASAS       MOCLDY    76  70  81 CALM      30.01F
$$

TXZ095>097-106>112-122>126-135>138-148>153-164>167-231100-
EAST TEXAS

CITY           SKY/WX    TMP DP  RH WIND       PRES   REMARKS
PARIS          CLOUDY    74  70  87 NW7       30.04R
SULPHUR SPRNGS PTCLDY    76  72  85 NW7       30.06R
MOUNT PLEASANT PTCLDY    75  74  98 CALM      30.02S
GILMER         PTCLDY    73  73  97 CALM      30.00S
MINEOLA        CLOUDY    75  73  94 E6        30.00S
TYLER          CLOUDY    76  74  93 S5        30.00R
LONGVIEW       PTCLDY    76  75  97 CALM      29.99R
MARSHALL         N/A     73  70  93 CALM      30.01S
ATHENS         PTCLDY    73  72  94 CALM      29.98S
PALESTINE      MOCLDY    75  73  91 CALM      30.01R
JACKSONVILLE   MOCLDY    76  73  90 S3        30.03R
HENDERSON      PTCLDY    73  72  98 CALM      30.01R
CENTER         MOSUNNY   77  76  95 CALM      30.00S
NACOGDOCHES    CLEAR     73  71  93 CALM      30.00S
LUFKIN         CLEAR     74  73  97 CALM      29.99R
$$

SUPPLEMENTAL OBSERVATIONS (NWS FORT WORTH AREA)

CITY           SKY/WX    TMP DP  RH WIND       PRES   REMARKS
CADDO GRASSLND   N/A     73  70  88 NW2         N/A
PAT MAYSE LAKE   N/A     73  72  94 W8          N/A
LBJ GRASSLAND    N/A     72  68  88 SE2         N/A
POSSUM KINGDOM   N/A     72  66  83 E6G14       N/A
GRANBURY         N/A     77  68  73 NE12        N/A
MCGREGOR         N/A     75  66  73 SW2         N/A
TEMPLE           N/A     77  68  73 S3          N/A
$$

SUPPLEMENTAL OBSERVATIONS (NWS NORMAN AREA)

CITY           SKY/WX    TMP DP  RH WIND       PRES   REMARKS
GOODLETT         N/A     68  66  92 N6        30.10S
ODELL            N/A     68  68  99 N5        30.10R
CROWELL          N/A     70  70  98 N5        30.10R
KNOX CITY        N/A     71  67  88 NW2       30.10R
SEYMOUR          N/A     73  70  89 NE2       30.07S
MILLERS CREEK    N/A     73  72  94 NE5         N/A
$$

SUPPLEMENTAL OBSERVATIONS (NWS SAN ANGELO AREA)

CITY           SKY/WX    TMP DP  RH WIND       PRES   REMARKS
WEINERT          N/A     72  70  95 N5        30.09S
HASKELL          N/A     70  68  95 NW5       30.08S
THROCKMORTON     N/A     72  71  97 NW3       30.08R
STAMFORD         N/A     71  70  95 N3        30.09S
CLYDE            N/A     72  69  92 NE10      30.10R
HAMBY            N/A     72  66  83 N5          N/A
IVIE RESERVOIR   N/A     75  66  73 CALM        N/A
COLORADO BEND    N/A     75  64  69 SW3         N/A
$$

SUPPLEMENTAL OBSERVATIONS (NWS SHREVEPORT AREA)

CITY           SKY/WX    TMP DP  RH WIND       PRES   REMARKS
TEXARKANA        N/A     77  75  94 NE6         N/A
LINDEN           N/A     75  72  88 CALM        N/A
LUFKIN           N/A     75  73  94 MISG        N/A
$$

SUPPLEMENTAL OBSERVATIONS ARE A COLLECTION OF AUTOMATED INSTRUMENTS
THAT ARE MAINTAINED BY A VARIETY OF FEDERAL AND STATE AGENCIES.
CERTAIN ELEMENTS...SUCH AS HUMIDITY VALUES AND SUSTAINED WIND
SPEEDS...MAY BE APPROXIMATED.





USA.gov is the U.S. government's official web portal to all federal, state and local government web resources and services.